Weather History for Idaho Falls, ID

Change the Weather History Date:

Wednesday, February 13, 2013

  Actual Average Record
Temperature  
Mean Temperature 32 °F 23 °F  
Max Temperature 35 °F 33 °F 54 °F (1967)
Min Temperature 28 °F 14 °F -28 °F (1949)
Degree Days  
Heating Degree Days 33 42  
Month to date heating degree days 520 559  
Since 1 July heating degree days 4904 5222  
Cooling Degree Days 0 0  
Month to date cooling degree days 0 0  
Year to date cooling degree days 0 0  
Moisture  
Dew Point 24 °F    
Average Humidity 77    
Maximum Humidity 85    
Minimum Humidity 69    
Precipitation  
Precipitation 0.00 in 0.03 in 0.35 in (1983)
Month to date precipitation T 0.28  
Year to date precipitation 0.31 0.97  
Sea Level Pressure  
Sea Level Pressure 30.26 in    
Wind  
Wind Speed 13 mph (SSW)    
Max Wind Speed 28 mph    
Max Gust Speed 32 mph    
Visibility 10 miles    
Events      
T = Trace of Precipitation, MM = Missing Value Source: NWS Daily Summary

Daily Weather History Graph

Daily Weather History Graph

Search for Another Location

Airport:

Trip Planner

Search our weather history database for the weather conditions in past years. The results will help you decide how hot, cold, wet, or windy it might be!

Date:

Astronomy

Feb. 13, 2013 Rise Set
Actual Time 7:29 AM MST 5:56 PM MST
Civil Twilight 6:59 AM MST 6:26 PM MST
Nautical Twilight 6:25 AM MST 6:59 PM MST
Astronomical Twilight 5:52 AM MST 7:32 PM MST
Moon 8:51 AM MST (2/13) 10:12 PM MST (2/13)
Length of Visible Light 11h 26m
Length of Day
10h 27m
Waxing Crescent, 14% of the Moon is Illuminated
Feb 13
Waxing Crescent
Feb 17
First Quarter
Feb 25
Full
Mar 4
Last Quarter
Mar 11
New

Hourly Weather History & Observations

Time (MST) Temp. Windchill Dew Point Humidity Pressure Visibility Wind Dir Wind Speed Gust Speed Precip Events Conditions
12:53 AM 28.0 °F 20.0 °F 21.9 °F 78% 30.36 in 8.0 mi SW 8.1 mph - N/A   Overcast
1:53 AM 30.0 °F 20.5 °F 21.9 °F 72% 30.34 in 10.0 mi SSW 11.5 mph - N/A   Overcast
2:53 AM 28.0 °F 19.3 °F 21.9 °F 78% 30.36 in 10.0 mi SW 9.2 mph - N/A   Overcast
3:01 AM 28.4 °F 19.1 °F 21.2 °F 74% 30.26 in 9.0 mi SW 10.4 mph - N/A   Overcast
3:53 AM 28.9 °F 19.2 °F 24.1 °F 82% 30.31 in 10.0 mi SSW 11.5 mph - N/A   Overcast
4:53 AM 28.9 °F 21.9 °F 23.0 °F 78% 30.32 in 10.0 mi SW 6.9 mph - N/A   Overcast
5:53 AM 28.9 °F 18.2 °F 21.9 °F 75% 30.31 in 10.0 mi SSW 13.8 mph - N/A   Overcast
6:53 AM 28.9 °F 17.7 °F 21.9 °F 75% 30.30 in 10.0 mi SSW 15.0 mph - N/A   Overcast
7:53 AM 28.9 °F 19.8 °F 21.9 °F 75% 30.30 in 10.0 mi SW 10.4 mph - N/A   Overcast
8:53 AM 30.0 °F 18.7 °F 23.0 °F 75% 30.30 in 10.0 mi SSW 16.1 mph - N/A   Overcast
9:39 AM 30.2 °F 20.8 °F 24.8 °F 80% 30.22 in 10.0 mi SW 11.5 mph 21.9 mph N/A   Overcast
9:53 AM 30.9 °F 22.8 °F 24.1 °F 76% 30.30 in 10.0 mi SSW 9.2 mph - N/A   Overcast
10:53 AM 32.0 °F 20.8 °F 26.1 °F 79% 30.27 in 10.0 mi SSW 17.3 mph - N/A   Overcast
11:53 AM 34.0 °F 21.8 °F 27.0 °F 75% 30.25 in 10.0 mi SSW 23.0 mph 29.9 mph N/A   Overcast
12:53 PM 34.0 °F 22.7 °F 26.1 °F 73% 30.25 in 10.0 mi SSW 19.6 mph 26.5 mph N/A   Overcast
1:53 PM 33.1 °F 24.9 °F 25.0 °F 72% 30.24 in 10.0 mi South 10.4 mph 20.7 mph N/A   Overcast
2:53 PM 34.0 °F 25.0 °F 26.1 °F 73% 30.23 in 10.0 mi SW 12.7 mph - N/A   Overcast
3:53 PM 35.1 °F 24.5 °F 26.1 °F 70% 30.22 in 10.0 mi SSW 18.4 mph - N/A   Overcast
4:53 PM 35.1 °F 23.8 °F 26.1 °F 70% 30.21 in 10.0 mi SSW 20.7 mph - N/A   Overcast
5:53 PM 34.0 °F 21.8 °F 26.1 °F 73% 30.19 in 10.0 mi SSW 23.0 mph - N/A   Overcast
6:53 PM 34.0 °F 22.4 °F 26.1 °F 73% 30.18 in 10.0 mi SSW 20.7 mph - N/A   Clear
7:53 PM 34.0 °F 24.2 °F 26.1 °F 73% 30.19 in 10.0 mi SSW 15.0 mph - N/A   Clear
8:48 PM 33.8 °F 24.8 °F 26.6 °F 75% 30.12 in 10.0 mi SSW 12.7 mph - N/A   Overcast
8:53 PM 34.0 °F 24.2 °F 26.1 °F 73% 30.19 in 10.0 mi SSW 15.0 mph - N/A   Overcast
9:53 PM 33.1 °F 24.9 °F 26.1 °F 75% 30.21 in 10.0 mi SSW 10.4 mph - N/A   Overcast
10:53 PM 28.9 °F 25.2 °F 24.1 °F 82% 30.23 in 10.0 mi NW 3.5 mph - N/A   Overcast
11:53 PM 28.0 °F - 23.0 °F 81% 30.25 in 10.0 mi Calm Calm - N/A   Overcast